Torna al catalogo

STARLINK-3451

AttivoComunicazioniVLEO
NORAD 51749·PAYLOAD·🇺🇸 United States

Lanciato Feb 21, 2022 da Cape Canaveral Space Force Station

Loading…

Prossimi Passaggi (prossime 24 ore)

TLE

AggiornatoSource: CelesTrak SupGP

Epoca: Sep 15, 2026, 02:09 UTC

1 51749C 22016AM  26258.09006944 -.00019002  00000+0 -61114-3 0  2589
2 51749  53.1568 175.9921 0001392  90.7336  29.6405 15.31707356    18

Traccia STARLINK-3451 in tempo reale con AllMySat

Download on the App Store